Location: Livorno
(43.5500°N, 10.3170°E)
Time: 11:02:12
(UTC+02:00)

ISS - Visible Passes

Search period start: 12 May 2025 00:00
Search period end: 22 May 2025 00:00
Orbit: 416 x 420 km, 51.6° (Epoch: 12 May)

Date Brightness Start Highest point End Pass type
(mag) Time Alt. Az. Time Alt. Az. Time Alt. Az.
12 May -0.7 01:27:39 10° NW 01:28:09 13° NW 01:28:09 13° NW visible
12 May -3.6 21:24:19 10° WSW 21:27:40 77° NNW 21:31:02 10° NE visible
12 May -1.3 23:02:03 10° WNW 23:04:50 23° NNW 23:07:38 10° NE visible
13 May -1.2 00:39:43 10° NW 00:42:03 21° N 00:42:03 21° N visible
13 May -1.6 22:13:48 10° W 22:16:46 28° NNW 22:19:44 10° NE visible
13 May -1.1 23:51:41 10° NW 23:54:17 20° N 23:55:47 16° NE visible
14 May -0.6 01:28:30 10° NW 01:28:42 11° NW 01:28:42 11° NW visible
14 May -2.1 21:25:33 10° W 21:28:42 36° NNW 21:31:50 10° NE visible
14 May -1.1 23:03:33 10° NW 23:06:08 20° N 23:08:43 10° NE visible
15 May -1.3 00:40:38 10° NW 00:42:21 22° NNW 00:42:21 22° NNW visible
15 May -1.2 22:15:19 10° WNW 22:17:59 21° N 22:20:37 10° NE visible
15 May -1.7 23:52:42 10° NW 23:55:31 24° NNE 23:55:58 24° NNE visible
16 May -1.4 21:27:00 10° WNW 21:29:49 24° NNW 21:32:37 10° NE visible
16 May -1.3 23:04:41 10° NW 23:07:22 21° N 23:09:34 12° NE visible
17 May -1.2 00:41:21 10° NW 00:42:28 19° NW 00:42:28 19° NW visible
17 May -1.2 22:16:35 10° NW 22:19:11 20° N 22:21:46 10° NE visible
17 May -2.2 23:53:24 10° NW 23:56:03 35° N 23:56:03 35° N visible
18 May -1.2 21:28:22 10° NW 21:30:57 20° N 21:33:32 10° NE visible
18 May -2.0 23:05:27 10° NW 23:08:27 29° NNE 23:09:38 23° NE visible
19 May -0.9 00:42:05 10° WNW 00:42:33 13° WNW 00:42:33 13° WNW visible
19 May -1.7 22:17:26 10° NW 22:20:16 24° NNE 22:23:05 10° ENE visible
19 May -2.3 23:54:02 10° WNW 23:56:07 35° NW 23:56:07 35° NW visible
20 May -1.5 21:29:21 10° NW 21:32:02 21° N 21:34:42 10° ENE visible
20 May -3.3 23:06:01 10° NW 23:09:20 53° NNE 23:09:42 50° NE visible
21 May -2.6 22:18:00 10° NW 22:21:11 37° NNE 22:23:17 18° E visible
